Location: Unspecified
(0.0000°N, 0.0000°E)
Time: 19:18:27
(UTC+00:00)

deb Explorer IX - Visible Passes

Search period start: 19 January 2017 00:00
Search period end: 29 January 2017 00:00
Orbit: 546 x 1123 km, 38.8° (Epoch: 18 January)

Date Brightness Start Highest point End Pass type
(mag) Time Alt. Az. Time Alt. Az. Time Alt. Az.
19 Jan ? 05:27:44 10° S 05:30:54 13° SE 05:34:04 10° ESE visible
19 Jan ? 19:57:44 10° WNW 20:01:47 50° SW 20:02:45 42° S visible
20 Jan ? 05:08:11 10° S 05:11:48 14° SE 05:15:24 10° ESE visible
20 Jan ? 19:38:54 10° WNW 19:42:50 44° SW 19:47:02 11° SSE visible
21 Jan ? 04:48:42 10° S 04:52:41 15° SE 04:56:39 10° ESE visible
21 Jan ? 19:20:03 10° WNW 19:23:53 39° SW 19:28:01 10° SSE visible
22 Jan ? 04:29:17 10° S 04:33:32 16° SE 04:37:49 10° ESE visible
22 Jan ? 19:01:12 10° WNW 19:04:56 34° SW 19:08:52 10° SSE visible
23 Jan ? 04:09:54 10° S 04:14:22 17° SE 04:18:56 10° ESE visible
23 Jan ? 18:42:21 10° WNW 18:45:57 30° SW 18:49:43 10° SSE visible
24 Jan ? 03:50:34 10° S 03:55:13 18° SE 04:00:00 10° E visible
24 Jan ? 05:35:41 10° SW 05:43:02 83° SE 05:50:25 10° NE visible
25 Jan ? 03:31:15 10° S 03:36:02 19° SE 03:41:00 10° E visible
25 Jan ? 05:16:30 10° SW 05:23:48 88° SE 05:31:14 10° NE visible
26 Jan ? 03:13:02 13° S 03:16:51 20° SE 03:21:59 10° E visible
26 Jan ? 04:57:20 10° SW 05:04:33 87° NW 05:12:01 10° NE visible
27 Jan ? 02:57:32 21° SE 02:57:40 21° SE 03:02:55 10° E visible
27 Jan ? 04:39:17 15° SW 04:45:18 82° NW 04:52:46 10° NE visible
28 Jan ? 02:41:46 16° ESE 02:41:46 16° ESE 02:43:50 10° E visible
28 Jan ? 04:23:29 43° WSW 04:26:03 77° NW 04:33:30 10° NE visible
